Comisión Nacional del Agua
Subdirección General Técnica
Estación: Presa Iturbide
Clave: C15231
Estado: México
Municipio: Isidro Fabela

Fecha, Precipitación(mm), Temperatura Media(ºC), Temperatura Máxima(ºC), Temperatura Mínima(ºC), Evaporación(mm)
1977/09/01,18.00,-,-,-,-
1977/09/02,4.00,-,-,-,-
1977/09/03,17.00,-,-,-,-
1977/09/04,3.00,-,-,-,-
1977/09/05,2.00,-,-,-,-
1977/09/06,0.00,-,-,-,-
1977/09/07,8.00,-,-,-,-
1977/09/08,11.00,-,-,-,-
1977/09/09,40.00,-,-,-,-
1977/09/10,9.50,-,-,-,-
1977/09/11,10.00,-,-,-,-
1977/09/12,7.00,-,-,-,-
1977/09/13,14.00,-,-,-,-
1977/09/14,28.50,-,-,-,-
1977/09/15,2.50,-,-,-,-
1977/09/16,6.00,-,-,-,-
1977/09/17,0.50,-,-,-,-
1977/09/18,0.80,-,-,-,-
1977/09/19,6.40,-,-,-,-
1977/09/20,3.50,-,-,-,-
1977/09/21,0.00,-,-,-,-
1977/09/22,21.30,7.50,13.00,2.00,-
1977/09/23,3.00,8.25,13.00,3.50,-
1977/09/24,5.30,9.75,16.00,3.50,-
1977/09/25,0.00,11.75,18.00,5.50,-
1977/09/26,0.00,9.00,17.00,1.00,-
1977/09/27,0.00,6.75,15.50,-2.00,-
1977/09/28,14.00,5.50,10.50,0.50,-
1977/09/29,4.00,8.50,14.50,2.50,-
1977/09/30,29.00,8.75,15.00,2.50,-
1977/10/01,9.70,7.25,12.50,2.00,-
1977/10/02,1.20,7.00,10.50,3.50,-
1977/10/03,7.50,5.25,7.00,3.50,-
1977/10/04,0.00,7.50,11.50,3.50,-
1977/10/05,0.00,9.00,14.50,3.50,-
1977/10/06,0.00,9.00,14.00,4.00,0.30
1977/10/07,0.00,10.00,17.00,3.00,2.20
1977/10/08,0.00,8.25,17.50,-1.00,2.50
1977/10/09,0.00,8.75,19.00,-1.50,5.10
1977/10/10,0.00,10.25,19.00,1.50,4.50
1977/10/11,0.00,9.50,18.00,1.00,5.50
1977/10/12,3.30,4.00,5.00,3.00,3.00
1977/10/13,0.50,6.00,11.50,0.50,2.40
1977/10/14,0.00,7.25,15.00,-0.50,7.30
1977/10/15,0.00,5.00,13.50,-3.50,4.80
1977/10/16,0.00,3.25,9.50,-3.00,2.90
1977/10/17,0.00,6.00,14.00,-2.00,1.80
1977/10/18,0.00,5.50,12.50,-1.50,0.90
1977/10/19,4.60,6.75,11.00,2.50,5.30
1977/10/20,5.70,5.25,9.00,1.50,6.40
1977/10/21,0.00,7.50,14.00,1.00,0.80
1977/10/22,1.00,7.50,13.00,2.00,1.20
1977/10/23,0.00,8.00,14.00,2.00,0.20
1977/10/24,1.00,9.00,15.00,3.00,1.70
1977/10/25,28.00,6.00,10.00,2.00,0.30
1977/10/26,16.50,6.50,8.00,5.00,2.20
1977/10/27,1.00,7.50,10.50,4.50,0.20
1977/10/28,27.50,6.25,10.50,2.00,2.90
1977/10/29,0.00,8.25,14.00,2.50,1.40
1977/10/30,0.00,7.75,15.50,0.00,3.40
1977/10/31,8.50,7.50,13.50,1.50,0.90
1977/11/01,1.50,9.00,13.00,5.00,2.10
1977/11/02,0.00,8.00,15.00,1.00,2.00
1977/11/03,0.00,7.75,14.50,1.00,1.10
1977/11/04,0.00,4.75,13.00,-3.50,1.30
1977/11/05,0.00,4.75,14.50,-5.00,3.60
1977/11/06,0.00,6.25,16.50,-4.00,2.50
1977/11/07,0.00,5.25,13.50,-3.00,1.70
1977/11/08,0.00,6.00,11.00,1.00,2.60
1977/11/09,0.30,5.75,9.50,2.00,0.40
1977/11/10,1.40,2.50,3.50,1.50,0.80
1977/11/11,0.50,4.75,10.00,-0.50,0.10
1977/11/12,0.00,3.75,10.00,-2.50,0.80
1977/11/13,0.00,4.25,12.50,-4.00,2.00
1977/11/14,0.10,3.25,11.50,-5.00,1.40
1977/11/15,0.00,4.00,12.00,-4.00,1.80
1977/11/16,0.00,3.75,10.00,-2.50,1.60
1977/11/17,0.00,5.00,10.00,0.00,0.30
1977/11/18,0.00,6.00,12.00,0.00,1.80
1977/11/19,0.00,5.50,12.00,-1.00,0.70
1977/11/20,0.00,4.50,10.00,-1.00,1.20
1977/11/21,1.50,4.25,9.50,-1.00,0.40
1977/11/22,5.50,4.50,8.00,1.00,1.40
1977/11/23,0.00,5.00,12.00,-2.00,0.40
1977/11/24,0.00,5.50,12.00,-1.00,0.70
1977/11/25,0.00,5.00,13.00,-3.00,1.80
1977/11/26,0.00,3.00,14.00,-8.00,3.20
1977/11/27,0.00,3.50,13.00,-6.00,0.30
1977/11/28,0.00,4.00,12.00,-4.00,2.70
1977/11/29,0.00,4.50,11.00,-2.00,1.70
1977/11/30,0.00,5.50,10.00,1.00,2.20
1977/12/01,0.00,5.50,10.00,1.00,1.10
1977/12/02,0.00,4.50,10.00,-1.00,0.60
1977/12/03,0.00,5.50,13.00,-2.00,2.40
1977/12/04,0.00,5.50,13.00,-2.00,0.40
1977/12/05,0.00,5.50,13.00,-2.00,1.90
1977/12/06,0.00,5.50,13.00,-2.00,0.40
1977/12/07,0.00,6.00,14.00,-2.00,1.00
1977/12/08,2.70,6.00,13.00,-1.00,2.00
1977/12/09,0.00,4.75,11.50,-2.00,0.40
1977/12/10,0.00,5.00,10.00,0.00,1.00
1977/12/11,2.50,4.75,10.50,-1.00,2.00
1977/12/12,4.00,3.50,7.00,0.00,0.80
1977/12/13,0.00,3.25,7.00,-0.50,2.40
1977/12/14,0.00,1.75,7.50,-4.00,1.80
1977/12/15,0.00,2.25,7.00,-2.50,1.80
1977/12/16,0.00,2.25,7.50,-3.00,1.50
1977/12/17,0.30,3.25,13.00,-6.50,3.20
1977/12/18,0.00,4.00,15.00,-7.00,1.00
1977/12/19,0.00,4.50,15.00,-6.00,1.90
1977/12/20,0.00,4.50,14.00,-5.00,0.70
1977/12/21,0.00,1.25,7.50,-5.00,1.30
1977/12/22,0.00,1.25,10.50,-8.00,0.70
1977/12/23,0.00,3.25,13.00,-6.50,2.20
1977/12/24,0.00,3.25,12.50,-6.00,2.00
1977/12/25,0.00,4.00,12.00,-4.00,2.40
1977/12/26,0.00,7.75,18.00,-2.50,3.00
1977/12/27,0.00,6.50,16.00,-3.00,2.40
1977/12/28,0.00,7.00,16.00,-2.00,1.90
1977/12/29,0.00,6.75,15.50,-2.00,1.70
1977/12/30,0.00,7.25,16.50,-2.00,2.20
1977/12/31,0.00,6.75,16.50,-3.00,2.70
1978/01/01,0.00,7.25,17.50,-3.00,2.00
1978/01/02,0.00,6.00,15.00,-3.00,1.50
1978/01/03,0.00,4.50,13.00,-4.00,1.60
1978/01/04,0.00,4.00,12.00,-4.00,1.60
1978/01/05,0.30,4.75,12.50,-3.00,0.40
1978/01/06,3.00,4.25,12.50,-4.00,1.40
1978/01/07,0.00,3.50,11.00,-4.00,2.10
1978/01/08,0.00,1.75,6.50,-3.00,1.40
1978/01/09,20.50,2.25,7.50,-3.00,0.60
1978/01/10,0.00,2.25,7.50,-3.00,1.50
1978/01/11,0.00,3.00,12.00,-6.00,4.60
1978/01/12,0.00,3.75,13.50,-6.00,0.40
1978/01/13,0.00,2.75,12.50,-7.00,0.40
1978/01/14,0.00,3.25,13.50,-7.00,6.80
1978/01/15,0.00,4.25,13.00,-4.50,1.50
1978/01/16,0.00,5.25,14.50,-4.00,4.20
1978/01/17,0.00,4.00,13.00,-5.00,1.70
1978/01/18,0.00,7.00,12.00,2.00,3.30
1978/01/19,0.00,7.50,15.00,0.00,1.50
1978/01/20,0.00,7.25,14.50,0.00,2.90
1978/01/21,0.00,6.50,14.00,-1.00,1.80
1978/01/22,0.40,6.75,12.50,1.00,1.50
1978/01/23,0.00,7.00,15.00,-1.00,1.60
1978/01/24,0.00,7.50,15.00,0.00,2.70
1978/01/25,0.00,6.00,12.00,0.00,3.70
1978/01/26,0.00,9.00,18.00,0.00,1.20
1978/01/27,0.00,8.00,16.00,0.00,2.20
1978/01/28,0.00,7.00,15.00,-1.00,1.70
1978/01/29,0.00,7.50,16.00,-1.00,2.10
1978/01/30,0.00,7.75,16.50,-1.00,3.40
1978/01/31,0.00,8.00,17.00,-1.00,3.00
1978/02/01,0.00,8.00,16.00,0.00,1.60
1978/02/02,0.00,7.50,15.50,-0.50,2.00
1978/02/03,0.00,8.25,15.50,1.00,1.20
1978/02/04,0.00,5.50,10.00,1.00,2.70
1978/02/05,0.20,2.00,8.00,-4.00,6.10
1978/02/06,0.00,4.50,14.00,-5.00,1.40
1978/02/07,13.00,0.00,4.00,-4.00,0.80
1978/02/08,0.00,4.00,10.00,-2.00,7.10
1978/02/09,0.00,4.75,14.00,-4.50,4.10
1978/02/10,0.00,6.00,16.00,-4.00,3.70
1978/02/11,0.00,5.00,13.00,-3.00,3.60
1978/02/12,0.00,4.75,7.50,2.00,2.20
1978/02/13,0.00,5.50,15.00,-4.00,2.90
1978/02/14,0.00,6.00,13.00,-1.00,6.40
1978/02/15,0.00,7.50,12.00,3.00,6.20
1978/02/16,0.00,7.00,14.00,0.00,4.10
1978/02/17,0.00,5.75,10.00,1.50,2.70
1978/02/18,0.00,6.50,11.00,2.00,2.20
1978/02/19,0.00,5.50,9.00,2.00,2.00
1978/02/20,0.00,6.00,11.00,1.00,1.90
1978/02/21,0.30,7.00,13.00,1.00,1.50
1978/02/22,28.00,5.50,9.00,2.00,3.10
1978/02/23,2.40,6.00,9.00,3.00,5.10
1978/02/24,0.00,7.75,12.50,3.00,9.10
1978/02/25,0.00,7.00,16.00,-2.00,4.60
1978/02/26,0.00,8.25,18.50,-2.00,2.40
1978/02/27,0.00,8.50,17.00,0.00,4.30
1978/02/28,0.00,10.00,19.00,1.00,3.80
1978/03/01,0.00,9.50,17.50,1.50,3.80
1978/03/02,0.00,9.50,17.00,2.00,5.30
1978/03/03,0.00,10.75,17.50,4.00,3.00
1978/03/04,0.00,9.00,18.00,0.00,5.30
1978/03/05,0.00,8.50,16.00,1.00,3.20
1978/03/06,0.00,8.75,16.00,1.50,4.90
1978/03/07,0.00,7.50,15.00,0.00,3.00
1978/03/08,0.00,6.00,13.00,-1.00,2.60
1978/03/09,0.00,5.00,14.00,-4.00,3.20
1978/03/10,0.00,7.50,18.00,-3.00,5.70
1978/03/11,0.00,9.00,20.00,-2.00,3.20
1978/03/12,0.00,8.75,19.00,-1.50,4.60
1978/03/13,0.00,9.25,20.00,-1.50,4.80
1978/03/14,0.00,10.25,20.50,0.00,4.90
1978/03/15,5.60,9.75,18.00,1.50,1.60
1978/03/16,8.80,4.00,5.00,3.00,1.70
1978/03/17,26.20,0.00,2.00,-2.00,1.10
1978/03/18,10.20,2.50,7.00,-2.00,0.20
1978/03/19,0.00,6.25,14.00,-1.50,1.10
1978/03/20,0.00,7.00,14.00,0.00,1.50
1978/03/21,0.00,8.00,16.00,0.00,2.50
1978/03/22,0.00,9.75,18.00,1.50,3.20
1978/03/23,0.00,11.50,21.00,2.00,3.30
1978/03/24,0.00,11.00,20.00,2.00,3.50
1978/03/25,0.00,10.50,19.00,2.00,2.40
1978/03/26,9.00,10.00,17.00,3.00,3.50
1978/03/27,0.00,8.00,15.00,1.00,2.00
1978/03/28,0.00,8.50,17.00,0.00,3.60
1978/03/29,0.00,8.50,15.00,2.00,2.00
1978/03/30,0.00,10.00,18.00,2.00,4.00
1978/03/31,0.00,10.25,19.00,1.50,4.30
1978/04/01,0.00,9.50,18.00,1.00,4.00
1978/04/02,0.70,8.50,16.00,1.00,0.80
1978/04/03,2.40,9.00,16.00,2.00,0.20
1978/04/04,0.00,9.50,19.00,0.00,4.70
1978/04/05,3.50,10.00,18.00,2.00,1.70
1978/04/06,1.20,9.50,16.00,3.00,1.20
1978/04/07,2.70,9.50,16.00,3.00,1.50
1978/04/08,0.10,10.50,17.00,4.00,1.80
1978/04/09,0.00,10.75,18.50,3.00,4.10
1978/04/10,0.00,10.25,18.00,2.50,4.20
1978/04/11,0.00,10.00,17.00,3.00,5.00
1978/04/12,0.00,11.00,17.00,5.00,4.70
1978/04/13,0.00,9.25,20.00,-1.50,5.00
1978/04/14,0.00,10.25,19.00,1.50,3.70
1978/04/15,0.00,11.25,19.50,3.00,3.00
1978/04/16,0.00,12.00,21.00,3.00,3.30
1978/04/17,0.00,12.00,21.00,3.00,3.10
1978/04/18,0.00,14.25,24.00,4.50,6.00
1978/04/19,0.00,14.00,24.00,4.00,6.40
1978/04/20,0.00,13.00,23.00,3.00,2.50
1978/04/21,0.00,12.50,21.00,4.00,6.30
1978/04/22,0.00,11.50,21.00,2.00,6.00
1978/04/23,0.00,12.00,21.00,3.00,4.20
1978/04/24,0.00,11.50,21.00,2.00,4.60
1978/04/25,0.30,8.50,16.00,1.00,2.80
1978/04/26,0.20,8.25,15.50,1.00,2.00
1978/04/27,7.30,8.00,14.00,2.00,0.40
1978/04/28,0.00,9.00,16.00,2.00,2.10
1978/04/29,0.00,11.75,19.00,4.50,3.50
1978/04/30,0.00,11.25,18.00,4.50,6.10
1978/05/01,0.00,11.00,20.00,2.00,4.80
1978/05/02,0.00,11.50,21.00,2.00,5.70
1978/05/03,0.00,11.00,20.00,2.00,7.10
1978/05/04,0.00,11.50,20.00,3.00,5.60
1978/05/05,0.00,11.50,22.00,1.00,5.00
1978/05/06,0.00,12.50,21.00,4.00,6.30
1978/05/07,0.00,12.25,21.00,3.50,3.70
1978/05/08,4.60,13.00,22.00,4.00,1.60
1978/05/09,8.00,12.00,20.00,4.00,2.70
1978/05/10,0.00,11.50,20.00,3.00,5.60
1978/05/11,0.00,12.50,20.00,5.00,4.20
1978/05/12,0.00,12.00,21.50,2.50,6.00
1978/05/13,0.00,11.00,20.00,2.00,6.10
1978/05/14,4.00,10.50,19.00,2.00,3.60
1978/05/15,2.00,12.00,19.00,5.00,1.50
1978/05/16,7.30,11.50,19.00,4.00,1.90
1978/05/17,0.00,11.00,17.00,5.00,3.80
1978/05/18,0.00,11.25,19.00,3.50,2.20
1978/05/19,4.50,11.25,18.50,4.00,2.90
1978/05/20,0.00,11.00,16.50,5.50,2.80
1978/05/21,5.50,9.75,18.00,1.50,3.50
1978/05/22,4.00,9.75,14.50,5.00,0.80
1978/05/23,3.40,10.25,16.00,4.50,1.60
1978/05/24,3.40,10.00,16.50,3.50,1.60
1978/05/25,0.00,9.00,16.00,2.00,2.00
1978/05/26,0.00,10.00,18.00,2.00,3.50
1978/05/27,0.00,9.00,17.00,1.00,5.20
1978/05/28,0.00,9.75,19.50,0.00,5.20
1978/05/29,0.00,11.00,18.50,3.50,4.40
1978/05/30,4.90,11.25,18.50,4.00,2.00
1978/05/31,1.50,9.25,12.00,6.50,0.50
1978/06/01,3.00,10.25,13.00,7.50,1.80
1978/06/02,11.00,11.75,15.50,8.00,0.80
1978/06/03,20.20,12.75,19.00,6.50,0.50
1978/06/04,4.20,8.50,10.00,7.00,0.10
1978/06/05,20.00,9.50,12.50,6.50,2.60
1978/06/06,6.10,10.00,13.50,6.50,1.00
1978/06/07,2.30,10.00,13.50,6.50,2.00
1978/06/08,11.00,10.50,14.50,6.50,2.00
1978/06/09,6.30,6.50,7.00,6.00,0.20
1978/06/10,44.10,9.25,13.00,5.50,1.80
1978/06/11,0.50,9.50,15.00,4.00,3.30
1978/06/12,7.30,8.00,13.00,3.00,2.70
1978/06/13,15.70,8.50,13.00,4.00,3.20
1978/06/14,0.30,9.50,15.00,4.00,2.70
1978/06/15,3.50,10.50,15.00,6.00,4.20
1978/06/16,10.70,8.75,14.00,3.50,1.90
1978/06/17,1.40,8.50,14.00,3.00,3.70
1978/06/18,62.00,8.75,12.50,5.00,2.70
1978/06/19,40.00,8.00,11.00,5.00,1.70
1978/06/20,2.60,8.00,13.00,3.00,1.40
1978/06/21,19.30,9.00,12.00,6.00,1.80
1978/06/22,13.60,9.25,14.50,4.00,2.50
1978/06/23,57.70,9.50,13.50,5.50,2.50
1978/06/24,4.00,9.75,13.00,6.50,2.40
1978/06/25,0.00,8.50,14.00,3.00,1.00
1978/06/26,0.00,10.50,16.00,5.00,5.40
1978/06/27,5.70,9.00,13.00,5.00,0.60
1978/06/28,6.70,9.50,13.50,5.50,0.90
1978/06/29,29.20,9.75,13.50,6.00,2.20
1978/06/30,12.60,9.25,13.50,5.00,1.50
1978/07/01,0.90,9.50,14.00,5.00,2.00
1978/07/02,1.20,9.25,13.50,5.00,2.00
1978/07/03,0.10,8.75,14.00,3.50,2.00
1978/07/04,4.30,8.25,11.50,5.00,0.40
1978/07/05,12.20,9.50,14.50,4.50,2.90
1978/07/06,10.20,9.25,13.50,5.00,2.40
1978/07/07,12.40,9.25,14.00,4.50,2.40
1978/07/08,7.30,6.00,12.00,0.00,2.70
1978/07/09,0.00,8.50,14.00,3.00,2.40
1978/07/10,11.60,9.75,13.00,6.50,1.60
1978/07/11,0.10,8.75,14.00,3.50,1.80
1978/07/12,15.90,10.25,14.50,6.00,3.00
1978/07/13,0.00,9.00,14.00,4.00,3.80
1978/07/14,1.90,7.50,13.00,2.00,1.90
1978/07/15,3.20,7.50,12.50,2.50,0.80
1978/07/16,9.40,7.25,11.00,3.50,3.00
1978/07/17,1.80,5.25,8.00,2.50,3.00
1978/07/18,16.40,10.00,14.00,6.00,2.00
1978/07/19,2.70,9.25,13.00,5.50,0.20
1978/07/20,1.40,8.50,15.00,2.00,4.70
1978/07/21,1.80,8.75,15.00,2.50,2.20
1978/07/22,8.50,8.75,14.00,3.50,1.30
1978/07/23,14.20,7.75,10.00,5.50,1.10
1978/07/24,46.00,9.00,13.00,5.00,2.20
1978/07/25,21.20,8.50,12.50,4.50,0.90
1978/07/26,28.40,8.50,12.50,4.50,1.00
1978/07/27,12.00,8.25,10.50,6.00,1.20
1978/07/28,14.10,8.50,11.00,6.00,0.60
1978/07/29,19.20,9.25,12.50,6.00,1.00
1978/07/30,0.40,8.25,12.50,4.00,1.90
1978/07/31,25.00,7.75,13.50,2.00,0.40
1978/08/01,6.50,9.25,14.00,4.50,3.10
1978/08/02,0.50,9.50,15.00,4.00,2.70
1978/08/03,0.00,8.50,14.00,3.00,3.90
1978/08/04,0.00,8.00,14.00,2.00,2.30
1978/08/05,0.30,8.75,13.50,4.00,3.30
1978/08/06,1.10,6.50,8.00,5.00,0.20
1978/08/07,4.20,5.75,9.50,2.00,0.70
1978/08/08,47.70,5.75,8.50,3.00,0.10
1978/08/09,16.10,9.75,13.50,6.00,0.30
1978/08/10,28.00,11.00,15.50,6.50,2.70
1978/08/11,5.30,9.75,13.50,6.00,0.90
1978/08/12,5.60,9.50,15.00,4.00,1.60
1978/08/13,10.00,8.75,14.00,3.50,2.00
1978/08/14,0.90,9.50,13.50,5.50,1.90
1978/08/15,0.00,9.50,14.00,5.00,3.30
1978/08/16,32.50,9.00,15.00,3.00,4.20
1978/08/17,0.00,8.75,14.50,3.00,2.60
1978/08/18,9.60,9.25,15.00,3.50,2.60
1978/08/19,8.30,9.50,14.00,5.00,3.70
1978/08/20,18.50,8.00,11.50,4.50,0.50
1978/08/21,12.70,7.25,9.50,5.00,1.40
1978/08/22,8.70,8.25,10.50,6.00,0.50
1978/08/23,8.50,8.75,11.50,6.00,1.70
1978/08/24,4.80,9.25,13.50,5.00,1.80
1978/08/25,15.60,9.25,13.00,5.50,2.90
1978/08/26,0.00,11.00,16.00,6.00,5.20
1978/08/27,0.00,8.00,15.00,1.00,4.30
1978/08/28,0.00,8.00,16.00,0.00,5.50
1978/08/29,0.00,9.25,16.50,2.00,3.30
1978/08/30,20.30,8.50,13.50,3.50,1.30
1978/08/31,6.20,9.00,13.00,5.00,1.30
1978/09/01,13.50,8.75,13.50,4.00,1.40
1978/09/02,3.00,9.00,14.00,4.00,4.10
1978/09/03,0.50,9.50,14.00,5.00,1.70
1978/09/04,14.90,7.75,10.50,5.00,0.30
1978/09/05,10.60,7.50,10.00,5.00,0.50
1978/09/06,9.50,6.75,9.00,4.50,0.80
1978/09/07,22.90,8.00,12.50,3.50,0.70
1978/09/08,31.10,9.50,13.00,6.00,1.50
1978/09/09,21.00,10.00,13.00,7.00,0.50
1978/09/10,19.70,8.25,11.50,5.00,1.00
1978/09/11,0.00,9.00,12.00,6.00,1.20
1978/09/12,30.20,8.75,15.00,2.50,3.30
1978/09/13,1.10,8.50,14.50,2.50,2.20
1978/09/14,5.60,10.50,16.00,5.00,1.10
1978/09/15,0.50,9.25,14.00,4.50,2.50
1978/09/16,0.00,9.00,15.00,3.00,3.90
1978/09/17,0.80,8.25,14.50,2.00,3.00
1978/09/18,3.20,7.25,10.00,4.50,0.20
1978/09/19,0.50,7.25,12.50,2.00,1.50
1978/09/20,2.90,7.00,10.00,4.00,0.40
1978/09/21,4.90,7.25,10.00,4.50,0.70
1978/09/22,23.70,7.00,9.50,4.50,0.50
1978/09/23,42.50,7.25,9.00,5.50,0.20
1978/09/24,5.40,8.00,10.00,6.00,0.10
1978/09/25,0.40,8.75,12.00,5.50,1.50
1978/09/26,11.70,8.75,14.00,3.50,2.20
1978/09/27,18.00,8.75,13.50,4.00,2.00
1978/09/28,3.20,7.50,10.50,4.50,0.20
1978/09/29,20.00,8.00,11.00,5.00,0.90
1978/09/30,18.00,8.50,11.00,6.00,1.20
1978/10/01,39.10,9.00,12.00,6.00,1.90
1978/10/02,15.90,8.00,13.00,3.00,1.00
1978/10/03,11.10,9.50,16.50,2.50,3.90
1978/10/04,4.40,10.00,15.00,5.00,1.00
1978/10/05,14.60,10.75,15.00,6.50,2.90
1978/10/06,2.20,9.50,12.00,7.00,0.90
1978/10/07,10.20,7.50,10.00,5.00,0.70
1978/10/08,12.00,8.25,11.50,5.00,0.60
1978/10/09,7.10,7.75,10.00,5.50,-
1978/10/10,0.00,6.00,9.00,3.00,3.60
1978/10/11,0.00,7.75,13.50,2.00,1.70
1978/10/12,0.60,6.50,11.00,2.00,1.40
1978/10/13,20.00,6.50,11.00,2.00,1.10
1978/10/14,18.40,3.50,5.00,2.00,1.10
1978/10/15,0.70,3.00,4.00,2.00,0.10
1978/10/16,0.30,5.25,10.00,0.50,0.90
1978/10/17,0.20,5.75,9.00,2.50,0.60
1978/10/18,0.60,6.25,11.50,1.00,0.70
1978/10/19,0.00,7.25,12.00,2.50,1.50
1978/10/20,0.00,7.75,13.00,2.50,1.50
1978/10/21,0.00,7.00,14.00,0.00,1.50
1978/10/22,0.00,8.00,16.00,0.00,3.00
1978/10/23,0.00,7.00,15.00,-1.00,3.40
1978/10/24,0.00,5.50,13.50,-2.50,1.60
1978/10/25,0.00,6.25,13.50,-1.00,1.90
1978/10/26,22.20,6.75,11.50,2.00,0.50
1978/10/27,15.80,8.25,11.50,5.00,0.60
1978/10/28,1.60,6.50,11.00,2.00,0.20
1978/10/29,0.20,6.00,9.50,2.50,0.20
1978/10/30,0.00,8.75,12.50,5.00,2.50
1978/10/31,0.00,5.50,12.00,-1.00,1.90
1978/11/01,3.00,3.75,7.50,0.00,0.60
1978/11/02,0.00,7.50,10.50,4.50,0.30
1978/11/03,0.00,8.75,12.50,5.00,2.40
1978/11/04,0.00,7.00,12.00,2.00,0.60
1978/11/05,0.00,7.50,12.50,2.50,1.40
1978/11/06,0.00,7.75,15.00,0.50,0.60
1978/11/07,3.50,5.50,10.00,1.00,1.60
1978/11/08,0.00,7.00,12.50,1.50,0.90
1978/11/09,0.00,7.25,13.50,1.00,3.50
1978/11/10,0.00,7.00,14.00,0.00,0.60
1978/11/11,0.00,6.50,14.00,-1.00,3.30
1978/11/12,0.00,6.50,12.50,0.50,1.10
1978/11/13,0.00,7.25,14.50,0.00,0.30
1978/11/14,0.00,7.75,15.00,0.50,2.10
1978/11/15,0.00,8.00,15.00,1.00,2.20
1978/11/16,0.00,6.25,12.00,0.50,1.00
1978/11/17,0.00,7.00,13.50,0.50,1.70
1978/11/18,0.00,7.25,14.50,0.00,2.00
1978/11/19,0.20,7.75,15.00,0.50,2.10
1978/11/20,0.00,6.75,12.00,1.50,2.20
1978/11/21,0.00,7.25,13.50,1.00,3.30
1978/11/22,0.00,7.25,14.50,0.00,2.00
1978/11/23,0.00,7.25,14.50,0.00,1.60
1978/11/24,21.00,7.75,13.50,2.00,4.20
1978/11/25,2.60,6.75,11.50,2.00,5.50
1978/11/26,12.00,7.25,13.50,1.00,2.50
1978/11/27,0.20,7.00,13.00,1.00,1.40
1978/11/28,0.00,7.50,14.00,1.00,1.80
1978/11/29,0.00,6.75,13.50,0.00,0.90
1978/11/30,2.40,6.25,11.50,1.00,0.40
1978/12/01,0.00,8.00,14.00,2.00,0.80
1978/12/02,18.00,8.25,14.00,2.50,2.40
1978/12/03,0.00,8.25,15.00,1.50,13.70
1978/12/04,0.00,7.50,14.00,1.00,0.50
1978/12/05,0.00,8.00,15.00,1.00,2.80
1978/12/06,0.00,6.50,14.00,-1.00,1.90
1978/12/07,0.00,6.75,13.00,0.50,2.20
1978/12/08,2.40,8.50,12.00,5.00,0.90
1978/12/09,3.90,6.75,11.50,2.00,0.40
1978/12/10,0.00,7.25,12.50,2.00,0.70
1978/12/11,0.00,6.00,11.00,1.00,1.00
1978/12/12,0.10,6.00,10.00,2.00,1.70
1978/12/13,0.00,7.25,13.00,1.50,1.90
1978/12/14,0.00,6.50,13.00,0.00,0.70
1978/12/15,0.00,6.75,13.50,0.00,2.40
1978/12/16,0.00,7.25,14.50,0.00,2.10
1978/12/17,0.00,4.50,11.00,-2.00,1.50
1978/12/18,0.00,5.00,12.00,-2.00,1.00
1978/12/19,0.00,5.25,11.50,-1.00,1.30
1978/12/20,0.00,5.75,13.50,-2.00,0.40
1978/12/21,0.00,5.75,14.00,-2.50,2.60
1978/12/22,0.00,6.25,13.50,-1.00,2.00
1978/12/23,0.00,6.75,13.50,0.00,2.20
1978/12/24,0.00,6.25,14.00,-1.50,0.80
1978/12/25,0.00,5.25,11.50,-1.00,2.10
1978/12/26,0.00,6.00,13.00,-1.00,1.10
1978/12/27,0.00,5.00,12.50,-2.50,2.10
1978/12/28,0.00,6.25,15.00,-2.50,2.60
1978/12/29,0.00,6.50,14.50,-1.50,1.80
1978/12/30,0.00,7.50,15.00,0.00,0.90
1978/12/31,0.00,6.75,15.50,-2.00,1.50
1979/01/01,0.00,5.75,14.00,-2.50,2.20
1979/01/02,0.40,6.50,14.50,-1.50,1.40
1979/01/03,0.00,4.25,12.00,-3.50,1.70
1979/01/04,0.00,5.50,14.00,-3.00,0.70
1979/01/05,0.00,5.00,12.50,-2.50,2.30
1979/01/06,0.00,5.75,13.50,-2.00,1.80
1979/01/07,0.00,5.75,13.50,-2.00,0.80
1979/01/08,0.00,4.50,12.00,-3.00,2.60
1979/01/09,0.00,4.50,12.00,-3.00,1.10
1979/01/10,0.00,5.25,13.00,-2.50,1.50
1979/01/11,0.00,5.25,12.50,-2.00,4.30
1979/01/12,0.00,6.00,16.00,-4.00,2.10
1979/01/13,0.00,6.50,16.50,-3.50,0.80
1979/01/14,0.00,5.00,13.00,-3.00,1.50
1979/01/15,0.00,5.00,12.50,-2.50,1.30
1979/01/16,0.00,5.00,13.00,-3.00,4.20
1979/01/17,0.00,5.75,14.00,-2.50,0.50
1979/01/18,0.00,4.75,11.00,-1.50,1.60
1979/01/19,0.00,6.25,13.50,-1.00,1.70
1979/01/20,0.00,7.50,14.00,1.00,2.30
1979/01/21,0.00,6.25,11.50,1.00,2.00
1979/01/22,0.00,7.75,14.50,1.00,2.50
1979/01/23,0.00,7.00,13.00,1.00,2.50
1979/01/24,0.00,6.25,12.50,0.00,1.50
1979/01/25,0.00,7.75,13.00,2.50,1.80
1979/01/26,0.00,10.25,16.50,4.00,3.00
1979/01/27,0.00,9.25,17.00,1.50,4.70
1979/01/28,0.00,7.50,15.00,0.00,2.20
1979/01/29,0.00,8.00,15.00,1.00,4.70
1979/01/30,0.00,9.00,17.00,1.00,2.40
1979/01/31,0.00,8.50,17.00,0.00,4.00
1979/02/01,0.00,7.75,15.50,0.00,2.70
1979/02/02,0.00,8.25,16.00,0.50,3.00
1979/02/03,0.00,7.25,15.50,-1.00,2.10
1979/02/04,0.00,7.25,15.50,-1.00,4.20
1979/02/05,0.00,7.00,14.50,-0.50,2.60
1979/02/06,4.70,6.25,10.00,2.50,1.80
1979/02/07,0.00,6.25,10.00,2.50,1.70
1979/02/08,0.00,6.00,13.50,-1.50,1.60
1979/02/09,0.00,2.50,8.00,-3.00,2.10
1979/02/10,0.40,4.75,11.00,-1.50,0.30
1979/02/11,14.30,5.50,10.00,1.00,0.20
1979/02/12,11.40,6.00,10.50,1.50,2.00
1979/02/13,2.20,4.75,9.50,0.00,1.00
1979/02/14,1.50,6.00,12.00,0.00,1.30
1979/02/15,0.00,6.75,13.00,0.50,2.30
1979/02/16,0.00,5.75,13.00,-1.50,1.30
1979/02/17,0.00,6.50,14.00,-1.00,3.60
1979/02/18,18.00,5.75,10.50,1.00,1.10
1979/02/19,3.40,5.50,11.00,0.00,0.90
1979/02/20,11.50,4.25,8.00,0.50,0.60
1979/02/21,0.50,5.50,12.00,-1.00,1.50
1979/02/22,0.00,5.50,11.50,-0.50,3.70
1979/02/23,0.00,7.25,15.00,-0.50,3.80
1979/02/24,0.00,8.00,17.00,-1.00,3.60
1979/02/25,0.40,8.50,17.00,0.00,2.10
1979/02/26,0.00,7.00,14.00,0.00,1.30
1979/02/27,0.00,6.00,11.50,0.50,3.60
1979/02/28,0.00,8.25,15.00,1.50,3.50
1979/03/01,0.00,8.25,15.50,1.00,3.60
1979/03/02,0.00,8.25,15.00,1.50,4.20
1979/03/03,0.00,9.25,15.50,3.00,5.30
1979/03/04,0.00,8.00,15.50,0.50,2.80
1979/03/05,0.00,8.25,15.00,1.50,4.00
1979/03/06,0.00,7.50,13.50,1.50,3.70
1979/03/07,0.00,6.00,13.50,-1.50,2.70
1979/03/08,0.00,6.00,13.50,-1.50,2.70
1979/03/09,0.00,7.00,15.00,-1.00,3.00
1979/03/10,0.00,7.50,15.00,0.00,2.70
1979/03/11,0.00,6.25,14.00,-1.50,2.00
1979/03/12,2.70,7.50,14.50,0.50,2.00
1979/03/13,0.00,9.00,15.00,3.00,2.10
1979/03/14,0.00,8.75,18.00,-0.50,5.20
1979/03/15,1.80,7.75,15.50,0.00,1.80
1979/03/16,2.60,6.75,14.50,-1.00,2.50
1979/03/17,3.90,7.50,15.00,0.00,2.60
1979/03/18,0.20,7.50,14.00,1.00,2.20
1979/03/19,0.00,7.50,15.00,0.00,3.60
1979/03/20,0.00,8.75,17.00,0.50,4.50
1979/03/21,0.00,8.50,15.50,1.50,3.40
1979/03/22,0.00,9.50,18.00,1.00,4.80
1979/03/23,0.00,11.75,20.00,3.50,6.00
1979/03/24,0.00,11.75,19.50,4.00,6.20
1979/03/25,0.00,10.50,17.00,4.00,5.20
1979/03/26,0.00,9.50,17.00,2.00,6.30
1979/03/27,0.00,9.00,18.00,0.00,3.80
1979/03/28,0.30,9.75,18.00,1.50,4.60
1979/03/29,0.80,10.50,19.50,1.50,3.40
1979/03/30,0.00,10.75,19.00,2.50,4.00
1979/03/31,0.00,11.25,17.50,5.00,2.40
1979/04/01,1.70,10.00,17.50,2.50,2.20
1979/04/02,0.00,11.50,19.00,4.00,4.70
1979/04/03,0.00,10.75,19.50,2.00,4.80
1979/04/04,0.00,12.25,21.50,3.00,3.90
1979/04/05,3.00,9.75,16.50,3.00,2.50
1979/04/06,6.80,10.25,17.00,3.50,2.50
1979/04/07,0.00,10.50,18.50,2.50,4.20
1979/04/08,0.00,11.50,19.50,3.50,3.80
1979/04/09,0.00,12.00,20.50,3.50,4.20
1979/04/10,0.00,10.50,18.00,3.00,3.60
1979/04/11,0.00,10.75,19.50,2.00,6.40
1979/04/12,0.00,10.50,20.50,0.50,3.90
1979/04/13,0.00,11.00,19.00,3.00,2.20
1979/04/14,0.00,10.25,15.50,5.00,1.90
1979/04/15,3.30,9.50,16.50,2.50,3.90
1979/04/16,4.00,8.75,17.00,0.50,3.20
1979/04/17,1.50,7.50,12.00,3.00,1.00
1979/04/18,0.50,7.75,14.00,1.50,1.70
1979/04/19,0.90,7.50,12.50,2.50,0.90
1979/04/20,7.90,10.50,17.00,4.00,4.70
1979/04/21,0.00,9.25,16.00,2.50,3.30
1979/04/22,0.00,8.00,15.00,1.00,4.30
1979/04/23,1.00,8.00,14.50,1.50,3.20
1979/04/24,1.30,6.00,11.50,0.50,1.20
1979/04/25,0.00,5.75,11.00,0.50,4.00
1979/04/26,0.80,9.75,18.00,1.50,2.40
1979/04/27,0.00,10.50,17.50,3.50,3.80
1979/04/28,0.00,9.50,16.00,3.00,2.40
1979/04/29,0.00,12.00,19.00,5.00,6.90
1979/04/30,0.00,11.50,20.00,3.00,6.60
1979/05/01,0.00,10.75,20.50,1.00,6.70
1979/05/02,0.00,10.75,20.00,1.50,5.20
1979/05/03,0.00,11.50,19.50,3.50,5.50
1979/05/04,0.00,12.75,19.50,6.00,5.90
1979/05/05,0.00,8.75,17.50,0.00,5.40
1979/05/06,0.00,9.75,19.50,0.00,5.70
1979/05/07,0.00,11.00,20.00,2.00,5.60
1979/05/08,0.00,11.00,20.00,2.00,6.80
1979/05/09,0.00,11.25,20.50,2.00,6.20
1979/05/10,0.00,10.00,17.00,3.00,3.80
1979/05/11,0.00,11.25,21.00,1.50,5.80
1979/05/12,0.00,9.50,17.50,1.50,3.20
1979/05/13,0.00,11.25,16.00,6.50,2.10
1979/05/14,13.10,11.00,15.50,6.50,2.60
1979/05/15,5.50,9.25,13.50,5.00,1.50
1979/05/16,1.90,8.75,14.00,3.50,1.60
1979/05/17,0.00,9.75,16.50,3.00,3.50
1979/05/18,0.00,10.25,18.00,2.50,2.90